カタログに戻る

STARLINK-5818

運用中通信VLEO
NORAD 55785·PAYLOAD·🇺🇸 United States

打ち上げ Mar 3, 2023 から Vandenberg Space Force Base

Loading…

次のパス (今後24時間)

TLE

最新Source: CelesTrak SupGP

元期: Sep 15, 2026, 02:42 UTC

1 55785C 23028AW  26258.11298611 -.00045957  00000+0 -38525-2 0  2581
2 55785  70.0001  87.0084 0002844 272.3017 177.4274 14.98342771    16

AllMySatでSTARLINK-5818をリアルタイム追跡

Download on the App Store